Tracking 26894 objects as of 2-Feb-2023
HD Live streaming from Space Station
objects crossing your sky now

STARLINK-1594

Track STARLINK-1594 now!
10-day predictions
STARLINK-1594 is classified as:


NORAD ID: 46140
Int'l Code: 2020-057Z
Perigee: 553.2 km
Apogee: 555.5 km
Inclination: 53.1 °
Period: 95.6 minutes
Semi major axis: 6925 km
RCS: Unknown
Launch date: August 18, 2020
Source: United States (US)
Launch site: AIR FORCE EASTERN TEST RANGE (AFETR)
Your satellite tracking list
Your tracking list is empty




NASA's NSSDC Master Catalog

Two Line Element Set (TLE):
1 46140U 20057Z   23032.17338424  .00001904  00000-0  14665-3 0  9990
2 46140  53.0576 320.6786 0001664  94.6472 265.4707 15.06406618137193
Source of the keplerian elements: AFSPC